Météo par heure à Novograd-Volynski

Ce jour, 30 Septembre, Mercredi

Heure Température Précipitation Vent Pression Humidité
00:00 +14°C° 0.5 mm 6 m/s 735 mmHg 88%
01:00 +14°C° 0.5 mm 6 m/s 735 mmHg 89%
02:00 +14°C° 0 mm 5 m/s 735 mmHg 92%
03:00 +14°C° 1.6 mm 5 m/s 734 mmHg 93%
04:00 +14°C° 1.6 mm 5 m/s 734 mmHg 93%
05:00 +13°C° 1.6 mm 6 m/s 733 mmHg 94%
06:00 +13°C° 3.1 mm 6 m/s 733 mmHg 92%
07:00 +11°C° 3.1 mm 6 m/s 733 mmHg 91%
08:00 +11°C° 0 mm 6 m/s 733 mmHg 93%
09:00 +12°C° 0.6 mm 5 m/s 733 mmHg 92%
10:00 +12°C° 0.6 mm 5 m/s 733 mmHg 92%
11:00 +12°C° 0.6 mm 5 m/s 733 mmHg 92%
12:00 +13°C° 0 mm 5 m/s 734 mmHg 91%
13:00 +13°C° 0 mm 5 m/s 734 mmHg 89%
14:00 +13°C° 0 mm 5 m/s 734 mmHg 88%
15:00 +13°C° 0.2 mm 5 m/s 734 mmHg 89%
16:00 +13°C° 0.2 mm 5 m/s 734 mmHg 91%
17:00 +13°C° 0.2 mm 5 m/s 734 mmHg 92%
18:00 +12°C° 0 mm 5 m/s 734 mmHg 93%
19:00 +12°C° 0 mm 5 m/s 734 mmHg 93%
20:00 +12°C° 0 mm 4 m/s 735 mmHg 93%
21:00 +12°C° 0 mm 4 m/s 734 mmHg 94%
22:00 +12°C° 0 mm 3 m/s 734 mmHg 94%
23:00 +12°C° 0 mm 3 m/s 734 mmHg 95%

Demain, 1 Octobre, Jeudi

Heure Température Précipitation Vent Pression Humidité
00:00 +12°C° 1 mm 3 m/s 734 mmHg 95%
01:00 +12°C° 1 mm 3 m/s 734 mmHg 96%
02:00 +12°C° 1 mm 3 m/s 734 mmHg 97%
03:00 +12°C° 1.4 mm 3 m/s 733 mmHg 97%
04:00 +12°C° 1.4 mm 3 m/s 733 mmHg 96%
05:00 +12°C° 1.4 mm 3 m/s 732 mmHg 96%
06:00 +12°C° 0.6 mm 3 m/s 733 mmHg 95%
07:00 +12°C° 0.6 mm 3 m/s 733 mmHg 94%
08:00 +12°C° 0.6 mm 4 m/s 734 mmHg 92%
09:00 +14°C° 0.1 mm 4 m/s 734 mmHg 84%
10:00 +15°C° 0.1 mm 5 m/s 735 mmHg 77%
11:00 +16°C° 0.1 mm 6 m/s 736 mmHg 69%
12:00 +16°C° 0 mm 6 m/s 736 mmHg 65%
13:00 +17°C° 0 mm 6 m/s 736 mmHg 62%
14:00 +17°C° 0 mm 5 m/s 736 mmHg 58%
15:00 +18°C° 0.2 mm 4 m/s 736 mmHg 64%
16:00 +17°C° 0.2 mm 4 m/s 736 mmHg 70%
17:00 +16°C° 0.2 mm 3 m/s 736 mmHg 75%
18:00 +14°C° 0.6 mm 3 m/s 736 mmHg 80%
19:00 +14°C° 0.6 mm 4 m/s 736 mmHg 85%
20:00 +13°C° 0.6 mm 4 m/s 737 mmHg 90%
21:00 +13°C° 0.3 mm 4 m/s 737 mmHg 90%
22:00 +13°C° 0.3 mm 4 m/s 736 mmHg 91%
23:00 +13°C° 0.3 mm 4 m/s 736 mmHg 91%

Après-demain, 2 Octobre, Vendredi

Heure Température Précipitation Vent Pression Humidité
00:00 +13°C° 0.2 mm 4 m/s 736 mmHg 92%
01:00 +12°C° 0.2 mm 4 m/s 736 mmHg 94%
02:00 +12°C° 0.2 mm 4 m/s 736 mmHg 95%
03:00 +12°C° 0 mm 4 m/s 736 mmHg 95%
04:00 +12°C° 0 mm 4 m/s 737 mmHg 95%
05:00 +12°C° 0 mm 4 m/s 737 mmHg 96%
06:00 +12°C° 0.6 mm 4 m/s 737 mmHg 96%
07:00 +12°C° 0.6 mm 3 m/s 737 mmHg 96%
08:00 +12°C° 0.6 mm 3 m/s 737 mmHg 96%
09:00 +12°C° 1 mm 3 m/s 737 mmHg 94%
10:00 +13°C° 1 mm 3 m/s 737 mmHg 93%
11:00 +13°C° 1 mm 3 m/s 738 mmHg 92%
12:00 +13°C° 0.5 mm 3 m/s 738 mmHg 91%
13:00 +14°C° 0.5 mm 2 m/s 738 mmHg 90%
14:00 +14°C° 0.5 mm 2 m/s 738 mmHg 90%
15:00 +14°C° 0.1 mm 2 m/s 738 mmHg 89%
16:00 +14°C° 0.1 mm 2 m/s 738 mmHg 89%
17:00 +14°C° 0.1 mm 2 m/s 738 mmHg 88%
18:00 +13°C° 0 mm 2 m/s 739 mmHg 89%
19:00 +13°C° 0 mm 2 m/s 739 mmHg 91%
20:00 +12°C° 0 mm 2 m/s 739 mmHg 92%
21:00 +12°C° 0 mm 2 m/s 739 mmHg 92%
22:00 +12°C° 0 mm 2 m/s 739 mmHg 92%
23:00 +12°C° 0 mm 2 m/s 739 mmHg 92%

3 Octobre, Samedi

Heure Température Précipitation Vent Pression Humidité
00:00 +12°C° 0 mm 2 m/s 740 mmHg 92%
01:00 +12°C° 0 mm 2 m/s 740 mmHg 92%
02:00 +12°C° 0 mm 2 m/s 740 mmHg 92%
03:00 +12°C° 0 mm 2 m/s 740 mmHg 91%
04:00 +12°C° 0 mm 2 m/s 740 mmHg 90%
05:00 +11°C° 0 mm 3 m/s 740 mmHg 90%
06:00 +12°C° 0.1 mm 2 m/s 740 mmHg 90%
07:00 +13°C° 0.1 mm 2 m/s 740 mmHg 90%
08:00 +13°C° 0.1 mm 2 m/s 740 mmHg 90%
09:00 +13°C° 0.1 mm 2 m/s 741 mmHg 89%
10:00 +14°C° 0.1 mm 2 m/s 741 mmHg 89%
11:00 +14°C° 0.1 mm 2 m/s 741 mmHg 88%
12:00 +13°C° 0.2 mm 3 m/s 741 mmHg 87%
13:00 +13°C° 0.2 mm 3 m/s 741 mmHg 87%
14:00 +14°C° 0.2 mm 3 m/s 740 mmHg 86%
15:00 +14°C° 0 mm 4 m/s 740 mmHg 86%
16:00 +14°C° 0 mm 4 m/s 740 mmHg 86%
17:00 +14°C° 0 mm 4 m/s 740 mmHg 86%
18:00 +14°C° 0 mm 4 m/s 740 mmHg 87%
19:00 +14°C° 0 mm 4 m/s 740 mmHg 88%
20:00 +13°C° 0 mm 4 m/s 740 mmHg 88%
21:00 +13°C° 0 mm 4 m/s 740 mmHg 87%
22:00 +14°C° 0 mm 4 m/s 740 mmHg 86%
23:00 +14°C° 0 mm 4 m/s 740 mmHg 85%

4 Octobre, Dimanche

Heure Température Précipitation Vent Pression Humidité
00:00 +14°C° 0 mm 4 m/s 740 mmHg 84%
01:00 +14°C° 0 mm 4 m/s 740 mmHg 84%
02:00 +14°C° 0 mm 4 m/s 740 mmHg 84%
03:00 +13°C° 0 mm 4 m/s 739 mmHg 83%
04:00 +13°C° 0 mm 3 m/s 739 mmHg 83%
05:00 +13°C° 0 mm 3 m/s 739 mmHg 82%
06:00 +14°C° 0 mm 4 m/s 739 mmHg 82%
07:00 +14°C° 0 mm 4 m/s 739 mmHg 83%
08:00 +15°C° 0 mm 4 m/s 739 mmHg 83%
09:00 +17°C° 0 mm 4 m/s 739 mmHg 78%
10:00 +18°C° 0 mm 4 m/s 739 mmHg 74%
11:00 +20°C° 0 mm 5 m/s 739 mmHg 70%
12:00 +21°C° 0 mm 5 m/s 739 mmHg 67%
13:00 +22°C° 0 mm 5 m/s 739 mmHg 65%
14:00 +23°C° 0 mm 5 m/s 739 mmHg 62%
15:00 +22°C° 0 mm 4 m/s 739 mmHg 66%
16:00 +21°C° 0 mm 4 m/s 739 mmHg 69%
17:00 +21°C° 0 mm 3 m/s 738 mmHg 73%
18:00 +20°C° 0.1 mm 3 m/s 738 mmHg 76%
19:00 +18°C° 0.1 mm 3 m/s 738 mmHg 79%
20:00 +17°C° 0.1 mm 3 m/s 738 mmHg 82%
21:00 +17°C° 0 mm 3 m/s 738 mmHg 81%
22:00 +17°C° 0 mm 3 m/s 738 mmHg 80%
23:00 +17°C° 0 mm 4 m/s 738 mmHg 80%

5 Octobre, Lundi

Heure Température Précipitation Vent Pression Humidité
00:00 +15°C° 0.1 mm 4 m/s 738 mmHg 81%
01:00 +15°C° 0.1 mm 4 m/s 738 mmHg 83%
02:00 +15°C° 0.1 mm 4 m/s 738 mmHg 85%
03:00 +15°C° 0 mm 4 m/s 738 mmHg 86%
04:00 +15°C° 0 mm 4 m/s 738 mmHg 88%
05:00 +15°C° 0 mm 5 m/s 738 mmHg 89%
06:00 +15°C° 0.1 mm 5 m/s 738 mmHg 88%
07:00 +16°C° 0.1 mm 5 m/s 737 mmHg 87%
08:00 +16°C° 0.1 mm 5 m/s 737 mmHg 87%
09:00 +17°C° 0.1 mm 6 m/s 737 mmHg 82%
10:00 +20°C° 0.1 mm 6 m/s 737 mmHg 78%
11:00 +21°C° 0.1 mm 7 m/s 737 mmHg 73%
12:00 +22°C° 0 mm 7 m/s 737 mmHg 70%
13:00 +23°C° 0 mm 6 m/s 737 mmHg 66%
14:00 +24°C° 0 mm 6 m/s 737 mmHg 63%
15:00 +23°C° 0 mm 5 m/s 736 mmHg 66%
16:00 +22°C° 0 mm 4 m/s 736 mmHg 69%
17:00 +22°C° 0 mm 3 m/s 736 mmHg 72%
18:00 +21°C° 0 mm 3 m/s 736 mmHg 73%
19:00 +20°C° 0 mm 4 m/s 736 mmHg 75%
20:00 +19°C° 0 mm 4 m/s 735 mmHg 76%
21:00 +19°C° 0 mm 4 m/s 736 mmHg 74%
22:00 +19°C° 0 mm 5 m/s 736 mmHg 71%
23:00 +20°C° 0 mm 6 m/s 736 mmHg 69%
Voir plus